CZ-6A DEB, 55869

Orbit data source: Space-Track

CZ-6A DEB, 55869 is space debris in SSO originally from a launch on Fri, 11 Nov 2022 UTC launched from the Taiyaun Space Center, China (TSC). Debris objects in space refer to the collection of defunct objects orbiting the Earth. Examples of debris include non-operational satellites, rocket bodies, and fragments generated from explosions, collisions, or faulty payload assembly.

Loading next visibility...
Identifier
55869, 2022-151ZR
Orbit
SSO
Country
Flag of CNCN / PRC
Related business
Manufacturer
SAST
Mission
Spacecraft
Bus & Motor
Unknown
Mass
Unknown
Launch date (UTC)
2022-11-11 (4 years ago)
Launch vehicle
Unknown
Launch site
Taiyaun Space Center, China (TSC)
Object type
Payload
Rocket body
Debris
Shape & HBR
Unknown shape, 0.1 m
Radar Cross Section
Medium (>0.1 m² and <1 m²)

Expand to show TLE details & history
Last TLE update: 17 hours ago

TLE from 17 hours ago
0 CZ-6A DEB
1 55869U 22151ZR  26207.17904468  .00014313  00000-0  21216-2 0  9996
2 55869  98.6396 278.6707 0071259 154.9314 205.5380 14.73478895183993
Epoch: 2026-07-26T04:17Z
TLE epoch observation values (Epoch: 2026-07-26T04:17:49.460Z)
Latitude
Longitude
-89.66608°
Altitude
698.238 km
Speed
7.483 km/s
True Right ascension
18h 34m 40s
True Declination
0° 00' 00"
Sunlit
Object was in full shadow at epoch
Visualization orbit readout
Latitude
Unknown
Longitude
Unknown
Altitude
Unknown
Speed
Unknown
Apparent Right ascension
Unknown
Apparent Declination
Unknown
Sunlit
N/A
Visualization observer readout
Local Sidereal Time
10:38:50
Azimuth
Unknown
Elevation
Unknown
Doppler factor
Unknown
Orbital elements
Apogee altitude
697.129 km
Perigee altitude
597.007 km
Semi-major axis
7,025.205 km
Eccentricity
0.00713
Inclination
98.6396°
RAAN
278.6707°
Arg. of periapsis
154.9314°
True anomaly
205.18878°
Mean anomaly
205.538°
Eccentric anomaly
205.36311°
Mean motion
3.68599 °/min
Orbital period
97.67 mins
BSTAR
0.0021216
Loading maneuver chart data...
Computing Atmospheric mass density...
Loading historical data...
Loading historical data...
Loading historical data...
Loading historical data...
Loading historical data...
Loading historical data...
Loading historical data...

Documentation

Showing up to 5 results
|